Year,Month,Day,Hour,Minute,Value (Times are PST for temperature in C)
2012,08,06,00,00,19.10
2012,08,06,00,01,19.00
2012,08,06,00,02,19.00
2012,08,06,00,03,18.90
2012,08,06,00,04,18.90
2012,08,06,00,05,18.90
2012,08,06,00,06,18.90
2012,08,06,00,07,18.90
2012,08,06,00,08,18.90
2012,08,06,00,09,18.90
2012,08,06,00,10,18.90
2012,08,06,00,11,18.90
2012,08,06,00,12,18.90
2012,08,06,00,13,18.90
2012,08,06,00,14,18.90
2012,08,06,00,15,18.90
2012,08,06,00,16,18.90
2012,08,06,00,17,18.80
2012,08,06,00,18,18.80
2012,08,06,00,19,18.80
2012,08,06,00,20,18.80
2012,08,06,00,21,18.80
2012,08,06,00,22,18.70
2012,08,06,00,23,18.70
2012,08,06,00,24,18.70
2012,08,06,00,25,18.70
2012,08,06,00,26,18.60
2012,08,06,00,27,18.60
2012,08,06,00,28,18.60
2012,08,06,00,29,18.60
2012,08,06,00,30,18.50
2012,08,06,00,31,18.50
2012,08,06,00,32,18.50
2012,08,06,00,33,18.40
2012,08,06,00,34,18.40
2012,08,06,00,35,18.40
2012,08,06,00,36,18.40
2012,08,06,00,37,18.40
2012,08,06,00,38,18.40
2012,08,06,00,39,18.30
2012,08,06,00,40,18.30
2012,08,06,00,41,18.30
2012,08,06,00,42,18.30
2012,08,06,00,43,18.30
2012,08,06,00,44,18.30
2012,08,06,00,45,18.30
2012,08,06,00,46,18.30
2012,08,06,00,47,18.30
2012,08,06,00,48,18.30
2012,08,06,00,49,18.30
2012,08,06,00,50,18.30
2012,08,06,00,51,18.30
2012,08,06,00,52,18.30
2012,08,06,00,53,18.30
2012,08,06,00,54,18.30
2012,08,06,00,55,18.30
2012,08,06,00,56,18.30
2012,08,06,00,57,18.30
2012,08,06,00,58,18.30
2012,08,06,00,59,18.30
2012,08,06,01,00,18.30
2012,08,06,01,01,18.40
2012,08,06,01,02,18.40
2012,08,06,01,03,18.40
2012,08,06,01,04,18.40
2012,08,06,01,05,18.40
2012,08,06,01,06,18.50
2012,08,06,01,07,18.50
2012,08,06,01,08,18.60
2012,08,06,01,09,18.60
2012,08,06,01,10,18.70
2012,08,06,01,11,18.80
2012,08,06,01,12,18.80
2012,08,06,01,13,18.90
2012,08,06,01,14,18.90
2012,08,06,01,15,18.90
2012,08,06,01,16,18.90
2012,08,06,01,17,18.90
2012,08,06,01,18,18.90
2012,08,06,01,19,19.00
2012,08,06,01,20,19.00
2012,08,06,01,21,19.00
2012,08,06,01,22,19.00
2012,08,06,01,23,19.00
2012,08,06,01,24,19.10
2012,08,06,01,25,19.10
2012,08,06,01,26,19.10
2012,08,06,01,27,19.10
2012,08,06,01,28,19.10
2012,08,06,01,29,19.10
2012,08,06,01,30,19.10
2012,08,06,01,31,19.10
2012,08,06,01,32,19.10
2012,08,06,01,33,19.10
2012,08,06,01,34,19.10
2012,08,06,01,35,19.00
2012,08,06,01,36,19.00
2012,08,06,01,37,19.00
2012,08,06,01,38,19.00
2012,08,06,01,39,19.00
2012,08,06,01,40,19.10
2012,08,06,01,41,19.10
2012,08,06,01,42,19.10
2012,08,06,01,43,19.10
2012,08,06,01,44,19.10
2012,08,06,01,45,19.10
2012,08,06,01,46,19.10
2012,08,06,01,47,19.10
2012,08,06,01,48,19.10
2012,08,06,01,49,19.10
2012,08,06,01,50,19.10
2012,08,06,01,51,19.10
2012,08,06,01,52,19.10
2012,08,06,01,53,19.10
2012,08,06,01,54,19.00
2012,08,06,01,55,19.00
2012,08,06,01,56,18.90
2012,08,06,01,57,18.90
2012,08,06,01,58,18.80
2012,08,06,01,59,18.80
2012,08,06,02,00,18.80
2012,08,06,02,01,18.80
2012,08,06,02,02,18.70
2012,08,06,02,03,18.70
2012,08,06,02,04,18.70
2012,08,06,02,05,18.60
2012,08,06,02,06,18.60
2012,08,06,02,07,18.60
2012,08,06,02,08,18.60
2012,08,06,02,09,18.60
2012,08,06,02,10,18.60
2012,08,06,02,11,18.60
2012,08,06,02,12,18.60
2012,08,06,02,13,18.50
2012,08,06,02,14,18.50
2012,08,06,02,15,18.50
2012,08,06,02,16,18.50
2012,08,06,02,17,18.50
2012,08,06,02,18,18.50
2012,08,06,02,19,18.50
2012,08,06,02,20,18.50
2012,08,06,02,21,18.50
2012,08,06,02,22,18.50
2012,08,06,02,23,18.50
2012,08,06,02,24,18.50
2012,08,06,02,25,18.50
2012,08,06,02,26,18.50
2012,08,06,02,27,18.50
2012,08,06,02,28,18.50
2012,08,06,02,29,18.50
2012,08,06,02,30,18.50
2012,08,06,02,31,18.40
2012,08,06,02,32,18.40
2012,08,06,02,33,18.40
2012,08,06,02,34,18.40
2012,08,06,02,35,18.30
2012,08,06,02,36,18.30
2012,08,06,02,37,18.30
2012,08,06,02,38,18.30
2012,08,06,02,39,18.30
2012,08,06,02,40,18.20
2012,08,06,02,41,18.20
2012,08,06,02,42,18.20
2012,08,06,02,43,18.20
2012,08,06,02,44,18.20
2012,08,06,02,45,18.10
2012,08,06,02,46,18.10
2012,08,06,02,47,18.10
2012,08,06,02,48,18.10
2012,08,06,02,49,18.10
2012,08,06,02,50,18.00
2012,08,06,02,51,18.00
2012,08,06,02,52,18.00
2012,08,06,02,53,18.00
2012,08,06,02,54,18.00
2012,08,06,02,55,17.90
2012,08,06,02,56,17.90
2012,08,06,02,57,17.90
2012,08,06,02,58,17.90
2012,08,06,02,59,17.90
2012,08,06,03,00,17.90
2012,08,06,03,01,17.90
2012,08,06,03,02,17.90
2012,08,06,03,06,17.90
2012,08,06,03,07,17.90
2012,08,06,03,08,17.90
2012,08,06,03,09,17.90
2012,08,06,03,10,17.90
2012,08,06,03,11,17.90
2012,08,06,03,12,17.90
2012,08,06,03,13,17.80
2012,08,06,03,14,17.80
2012,08,06,03,15,17.80
2012,08,06,03,16,17.80
2012,08,06,03,17,17.70
2012,08,06,03,18,17.70
2012,08,06,03,19,17.70
2012,08,06,03,20,17.70
2012,08,06,03,21,17.60
2012,08,06,03,22,17.60
2012,08,06,03,23,17.60
2012,08,06,03,24,17.60
2012,08,06,03,25,17.60
2012,08,06,03,26,17.60
2012,08,06,03,27,17.60
2012,08,06,03,28,17.60
2012,08,06,03,29,17.60
2012,08,06,03,30,17.50
2012,08,06,03,31,17.50
2012,08,06,03,32,17.50
2012,08,06,03,33,17.50
2012,08,06,03,34,17.40
2012,08,06,03,35,17.40
2012,08,06,03,36,17.40
2012,08,06,03,37,17.40
2012,08,06,03,38,17.40
2012,08,06,03,39,17.40
2012,08,06,03,40,17.40
2012,08,06,03,41,17.40
2012,08,06,03,42,17.30
2012,08,06,03,43,17.30
2012,08,06,03,44,17.30
2012,08,06,03,45,17.30
2012,08,06,03,46,17.30
2012,08,06,03,47,17.30
2012,08,06,03,48,17.20
2012,08,06,03,49,17.20
2012,08,06,03,50,17.20
2012,08,06,03,51,17.20
2012,08,06,03,52,17.20
2012,08,06,03,53,17.20
2012,08,06,03,54,17.20
2012,08,06,03,55,17.20
2012,08,06,03,56,17.20
2012,08,06,03,57,17.20
2012,08,06,03,58,17.20
2012,08,06,03,59,17.20
2012,08,06,04,00,17.20
2012,08,06,04,01,17.20
2012,08,06,04,02,17.20
2012,08,06,04,03,17.20
2012,08,06,04,04,17.20
2012,08,06,04,05,17.20
2012,08,06,04,06,17.20
2012,08,06,04,07,17.20
2012,08,06,04,08,17.20
2012,08,06,04,09,17.20
2012,08,06,04,10,17.20
2012,08,06,04,11,17.20
2012,08,06,04,12,17.10
2012,08,06,04,13,17.10
2012,08,06,04,14,17.10
2012,08,06,04,15,17.10
2012,08,06,04,16,17.10
2012,08,06,04,17,17.10
2012,08,06,04,18,17.00
2012,08,06,04,19,17.00
2012,08,06,04,20,16.90
2012,08,06,04,21,16.90
2012,08,06,04,22,16.90
2012,08,06,04,23,16.90
2012,08,06,04,24,16.90
2012,08,06,04,25,16.80
2012,08,06,04,26,16.80
2012,08,06,04,27,16.80
2012,08,06,04,28,16.80
2012,08,06,04,29,16.80
2012,08,06,04,30,16.80
2012,08,06,04,31,16.70
2012,08,06,04,32,16.70
2012,08,06,04,33,16.70
2012,08,06,04,34,16.70
2012,08,06,04,35,16.70
2012,08,06,04,36,16.70
2012,08,06,04,37,16.70
2012,08,06,04,38,16.70
2012,08,06,04,39,16.70
2012,08,06,04,40,16.70
2012,08,06,04,41,16.70
2012,08,06,04,42,16.70
2012,08,06,04,43,16.70
2012,08,06,04,44,16.70
2012,08,06,04,45,16.70
2012,08,06,04,46,16.70
2012,08,06,04,47,16.70
2012,08,06,04,48,16.70
2012,08,06,04,49,16.70
2012,08,06,04,50,16.70
2012,08,06,04,51,16.70
2012,08,06,04,52,16.70
2012,08,06,04,53,16.70
2012,08,06,04,54,16.70
2012,08,06,04,55,16.60
2012,08,06,04,56,16.60
2012,08,06,04,57,16.60
2012,08,06,04,58,16.60
2012,08,06,04,59,16.60
2012,08,06,05,00,16.60
2012,08,06,05,01,16.60
2012,08,06,05,02,16.60
2012,08,06,05,03,16.60
2012,08,06,05,04,16.60
2012,08,06,05,05,16.60
2012,08,06,05,06,16.60
2012,08,06,05,07,16.60
2012,08,06,05,08,16.60
2012,08,06,05,09,16.60
2012,08,06,05,10,16.60
2012,08,06,05,11,16.60
2012,08,06,05,12,16.60
2012,08,06,05,13,16.60
2012,08,06,05,14,16.60
2012,08,06,05,15,16.60
2012,08,06,05,16,16.60
2012,08,06,05,17,16.60
2012,08,06,05,18,16.60
2012,08,06,05,19,16.60
2012,08,06,05,20,16.50
2012,08,06,05,21,16.50
2012,08,06,05,22,16.40
2012,08,06,05,23,16.40
2012,08,06,05,24,16.40
2012,08,06,05,25,16.40
2012,08,06,05,26,16.40
2012,08,06,05,27,16.40
2012,08,06,05,28,16.40
2012,08,06,05,29,16.40
2012,08,06,05,30,16.40
2012,08,06,05,31,16.40
2012,08,06,05,32,16.40
2012,08,06,05,33,16.40
2012,08,06,05,34,16.40
2012,08,06,05,35,16.40
2012,08,06,05,36,16.30
2012,08,06,05,37,16.30
2012,08,06,05,38,16.30
2012,08,06,05,39,16.30
2012,08,06,05,40,16.20
2012,08,06,05,41,16.20
2012,08,06,05,42,16.20
2012,08,06,05,43,16.20
2012,08,06,05,44,16.20
2012,08,06,05,45,16.20
2012,08,06,05,46,16.20
2012,08,06,05,47,16.20
2012,08,06,05,48,16.20
2012,08,06,05,49,16.30
2012,08,06,05,50,16.20
2012,08,06,05,51,16.20
2012,08,06,05,52,16.20
2012,08,06,05,53,16.20
2012,08,06,05,54,16.20
2012,08,06,05,55,16.20
2012,08,06,05,56,16.20
2012,08,06,05,57,16.20
2012,08,06,05,58,16.20
2012,08,06,05,59,16.20
2012,08,06,06,00,16.20
2012,08,06,06,01,16.20
2012,08,06,06,02,16.20
2012,08,06,06,03,16.20
2012,08,06,06,04,16.20
2012,08,06,06,05,16.20
2012,08,06,06,06,16.20
2012,08,06,06,07,16.20
2012,08,06,06,08,16.20
2012,08,06,06,09,16.20
2012,08,06,06,10,16.20
2012,08,06,06,11,16.10
2012,08,06,06,12,16.10
2012,08,06,06,13,16.10
2012,08,06,06,14,16.10
2012,08,06,06,15,16.10
2012,08,06,06,16,16.10
2012,08,06,06,17,16.10
2012,08,06,06,18,16.10
2012,08,06,06,19,16.10
2012,08,06,06,20,16.10
2012,08,06,06,21,16.10
2012,08,06,06,22,16.10
2012,08,06,06,23,16.10
2012,08,06,06,24,16.10
2012,08,06,06,25,16.10
2012,08,06,06,26,16.10
2012,08,06,06,27,16.10
2012,08,06,06,28,16.10
2012,08,06,06,29,16.10
2012,08,06,06,30,16.10
2012,08,06,06,31,16.10
2012,08,06,06,32,16.10
2012,08,06,06,33,16.10
2012,08,06,06,34,16.10
2012,08,06,06,35,16.10
2012,08,06,06,36,16.10
2012,08,06,06,37,16.10
2012,08,06,06,38,16.10
2012,08,06,06,39,16.20
2012,08,06,06,40,16.20
2012,08,06,06,41,16.20
2012,08,06,06,42,16.20
2012,08,06,06,43,16.20
2012,08,06,06,44,16.20
2012,08,06,06,45,16.20
2012,08,06,06,46,16.20
2012,08,06,06,47,16.30
2012,08,06,06,48,16.30
2012,08,06,06,49,16.30
2012,08,06,06,50,16.30
2012,08,06,06,51,16.30
2012,08,06,06,52,16.30
2012,08,06,06,53,16.30
2012,08,06,06,54,16.40
2012,08,06,06,55,16.40
2012,08,06,06,56,16.40
2012,08,06,06,57,16.50
2012,08,06,06,58,16.50
2012,08,06,06,59,16.60
2012,08,06,07,00,16.60
2012,08,06,07,01,16.60
2012,08,06,07,02,16.70
2012,08,06,07,03,16.70
2012,08,06,07,04,16.70
2012,08,06,07,05,16.80
2012,08,06,07,06,16.80
2012,08,06,07,07,16.80
2012,08,06,07,08,16.90
2012,08,06,07,09,17.00
2012,08,06,07,10,17.00
2012,08,06,07,11,17.00
2012,08,06,07,12,17.10
2012,08,06,07,13,17.10
2012,08,06,07,14,17.20
2012,08,06,07,15,17.20
2012,08,06,07,16,17.20
2012,08,06,07,17,17.30
2012,08,06,07,18,17.30
2012,08,06,07,19,17.30
2012,08,06,07,20,17.40
2012,08,06,07,21,17.40
2012,08,06,07,22,17.40
2012,08,06,07,23,17.50
2012,08,06,07,24,17.50
2012,08,06,07,25,17.60
2012,08,06,07,26,17.60
2012,08,06,07,27,17.60
2012,08,06,07,28,17.70
2012,08,06,07,29,17.70
2012,08,06,07,30,17.70
2012,08,06,07,31,17.80
2012,08,06,07,32,17.80
2012,08,06,07,33,17.80
2012,08,06,07,34,17.80
2012,08,06,07,35,17.80
2012,08,06,07,36,17.90
2012,08,06,07,37,17.90
2012,08,06,07,38,17.90
2012,08,06,07,39,17.90
2012,08,06,07,40,17.90
2012,08,06,07,41,17.90
2012,08,06,07,42,17.90
2012,08,06,07,43,18.00
2012,08,06,07,44,18.00
2012,08,06,07,45,18.00
2012,08,06,07,46,18.10
2012,08,06,07,47,18.10
2012,08,06,07,48,18.10
2012,08,06,07,49,18.10
2012,08,06,07,50,18.20
2012,08,06,07,51,18.20
2012,08,06,07,52,18.20
2012,08,06,07,53,18.20
2012,08,06,07,54,18.30
2012,08,06,07,55,18.30
2012,08,06,07,56,18.30
2012,08,06,07,57,18.30
2012,08,06,07,58,18.30
2012,08,06,07,59,18.40
2012,08,06,08,00,18.40
2012,08,06,08,01,18.50
2012,08,06,08,02,18.50
2012,08,06,08,03,18.60
2012,08,06,08,04,18.60
2012,08,06,08,05,18.70
2012,08,06,08,06,18.80
2012,08,06,08,07,18.90
2012,08,06,08,08,19.10
2012,08,06,08,09,19.20
2012,08,06,08,10,19.30
2012,08,06,08,11,19.40
2012,08,06,08,12,19.50
2012,08,06,08,13,19.60
2012,08,06,08,14,19.70
2012,08,06,08,15,19.70
2012,08,06,08,16,19.80
2012,08,06,08,17,19.90
2012,08,06,08,18,20.00
2012,08,06,08,19,20.00
2012,08,06,08,20,20.10
2012,08,06,08,21,20.20
2012,08,06,08,22,20.30
2012,08,06,08,23,20.30
2012,08,06,08,24,20.40
2012,08,06,08,25,20.40
2012,08,06,08,26,20.50
2012,08,06,08,27,20.50
2012,08,06,08,28,20.60
2012,08,06,08,29,20.70
2012,08,06,08,30,20.70
2012,08,06,08,31,20.80
2012,08,06,08,32,20.80
2012,08,06,08,33,20.90
2012,08,06,08,34,20.90
2012,08,06,08,35,21.00
2012,08,06,08,36,21.00
2012,08,06,08,37,21.00
2012,08,06,08,38,21.10
2012,08,06,08,39,21.10
2012,08,06,08,40,21.10
2012,08,06,08,41,21.20
2012,08,06,08,42,21.20
2012,08,06,08,43,21.30
2012,08,06,08,44,21.30
2012,08,06,08,45,21.40
2012,08,06,08,46,21.50
2012,08,06,08,47,21.60
2012,08,06,08,48,21.70
2012,08,06,08,49,21.80
2012,08,06,08,50,21.80
2012,08,06,08,51,21.90
2012,08,06,08,52,22.00
2012,08,06,08,53,22.00
2012,08,06,08,54,22.10
2012,08,06,08,55,22.10
2012,08,06,08,56,22.10
2012,08,06,08,57,22.20
2012,08,06,08,58,22.20
2012,08,06,08,59,22.20
2012,08,06,09,00,22.20
2012,08,06,09,01,22.30
2012,08,06,09,02,22.30
2012,08,06,09,03,22.40
2012,08,06,09,04,22.50
2012,08,06,09,05,22.60
2012,08,06,09,06,22.60
2012,08,06,09,07,22.70
2012,08,06,09,08,22.80
2012,08,06,09,09,22.80
2012,08,06,09,10,22.90
2012,08,06,09,11,22.90
2012,08,06,09,12,23.00
2012,08,06,09,13,23.00
2012,08,06,09,14,23.10
2012,08,06,09,15,23.00
2012,08,06,09,16,23.10
2012,08,06,09,17,23.10
2012,08,06,09,18,23.10
2012,08,06,09,19,23.10
2012,08,06,09,20,23.10
2012,08,06,09,21,23.00
2012,08,06,09,22,23.00
2012,08,06,09,23,23.00
2012,08,06,09,24,23.00
2012,08,06,09,25,23.10
2012,08,06,09,26,23.10
2012,08,06,09,27,23.20
2012,08,06,09,28,23.20
2012,08,06,09,29,23.20
2012,08,06,09,30,23.20
2012,08,06,09,31,23.30
2012,08,06,09,32,23.30
2012,08,06,09,33,23.30
2012,08,06,09,34,23.30
2012,08,06,09,35,23.30
2012,08,06,09,36,23.30
2012,08,06,09,37,23.20
2012,08,06,09,38,23.20
2012,08,06,09,39,23.20
2012,08,06,09,40,23.20
2012,08,06,09,41,23.10
2012,08,06,09,42,23.00
2012,08,06,09,43,22.90
2012,08,06,09,44,22.90
2012,08,06,09,45,22.80
2012,08,06,09,46,22.70
2012,08,06,09,47,22.60
2012,08,06,09,48,22.60
2012,08,06,09,49,22.50
2012,08,06,09,50,22.30
2012,08,06,09,51,22.20
2012,08,06,09,52,22.20
2012,08,06,09,53,22.20
2012,08,06,09,54,22.20
2012,08,06,09,55,22.20
2012,08,06,09,56,22.20
2012,08,06,09,57,22.20
2012,08,06,09,58,22.20
2012,08,06,09,59,22.20
2012,08,06,10,00,22.30
2012,08,06,10,01,22.30
2012,08,06,10,02,22.30
2012,08,06,10,03,22.30
2012,08,06,10,04,22.30
2012,08,06,10,05,22.30
2012,08,06,10,06,22.40
2012,08,06,10,07,22.40
2012,08,06,10,08,22.40
2012,08,06,10,09,22.40
2012,08,06,10,10,22.40
2012,08,06,10,11,22.30
2012,08,06,10,12,22.40
2012,08,06,10,13,22.40
2012,08,06,10,14,22.40
2012,08,06,10,15,22.40
2012,08,06,10,16,22.40
2012,08,06,10,17,22.40
2012,08,06,10,18,22.40
2012,08,06,10,19,22.40
2012,08,06,10,20,22.40
2012,08,06,10,21,22.40
2012,08,06,10,22,22.30
2012,08,06,10,23,22.30
2012,08,06,10,24,22.30
2012,08,06,10,25,22.20
2012,08,06,10,26,22.30
2012,08,06,10,27,22.30
2012,08,06,10,28,22.30
2012,08,06,10,29,22.30
2012,08,06,10,30,22.30
2012,08,06,10,31,22.30
2012,08,06,10,32,22.30
2012,08,06,10,33,22.30
2012,08,06,10,34,22.30
2012,08,06,10,35,22.40
2012,08,06,10,36,22.30
2012,08,06,10,37,22.40
2012,08,06,10,38,22.40
2012,08,06,10,39,22.50
2012,08,06,10,40,22.50
2012,08,06,10,41,22.40
2012,08,06,10,42,22.50
2012,08,06,10,43,22.60
2012,08,06,10,44,22.70
2012,08,06,10,45,22.70
2012,08,06,10,46,22.80
2012,08,06,10,47,22.80
2012,08,06,10,48,22.90
2012,08,06,10,49,23.00
2012,08,06,10,50,23.00
2012,08,06,10,51,23.10
2012,08,06,10,52,23.20
2012,08,06,10,53,23.20
2012,08,06,10,54,23.30
2012,08,06,10,55,23.30
2012,08,06,10,56,23.40
2012,08,06,10,57,23.40
2012,08,06,10,58,23.40
2012,08,06,10,59,23.50
2012,08,06,11,00,23.60
2012,08,06,11,01,23.70
2012,08,06,11,02,23.70
2012,08,06,11,03,23.80
2012,08,06,11,04,23.80
2012,08,06,11,05,23.80
2012,08,06,11,06,23.80
2012,08,06,11,07,23.80
2012,08,06,11,08,23.80
2012,08,06,11,09,23.80
2012,08,06,11,10,23.90
2012,08,06,11,11,24.00
2012,08,06,11,12,24.10
2012,08,06,11,13,24.20
2012,08,06,11,14,24.30
2012,08,06,11,15,24.40
2012,08,06,11,16,24.40
2012,08,06,11,17,24.40
2012,08,06,11,18,24.40
2012,08,06,11,19,24.30
2012,08,06,11,20,24.30
2012,08,06,11,21,24.30
2012,08,06,11,22,24.30
2012,08,06,11,23,24.20
2012,08,06,11,24,24.30
2012,08,06,11,25,24.30
2012,08,06,11,26,24.30
2012,08,06,11,27,24.30
2012,08,06,11,28,24.20
2012,08,06,11,29,24.10
2012,08,06,11,30,24.00
2012,08,06,11,31,23.90
2012,08,06,11,32,23.70
2012,08,06,11,33,23.70
2012,08,06,11,34,23.70
2012,08,06,11,35,23.70
2012,08,06,11,36,23.70
2012,08,06,11,37,23.70
2012,08,06,11,38,23.70
2012,08,06,11,39,23.80
2012,08,06,11,40,24.00
2012,08,06,11,41,24.10
2012,08,06,11,42,24.20
2012,08,06,11,43,24.40
2012,08,06,11,44,24.50
2012,08,06,11,45,24.70
2012,08,06,11,46,24.80
2012,08,06,11,47,24.90
2012,08,06,11,48,25.10
2012,08,06,11,49,25.20
2012,08,06,11,50,25.20
2012,08,06,11,51,25.30
2012,08,06,11,52,25.30
2012,08,06,11,53,25.30
2012,08,06,11,54,25.30
2012,08,06,11,55,25.20
2012,08,06,11,56,25.10
2012,08,06,11,57,25.00
2012,08,06,11,58,24.90
2012,08,06,11,59,24.90
2012,08,06,12,00,24.90
2012,08,06,12,01,24.80
2012,08,06,12,02,24.70
2012,08,06,12,03,24.70
2012,08,06,12,04,24.60
2012,08,06,12,05,24.50
2012,08,06,12,06,24.40
2012,08,06,12,07,24.30
2012,08,06,12,08,24.20
2012,08,06,12,09,24.20
2012,08,06,12,10,24.20
2012,08,06,12,11,24.20
2012,08,06,12,12,24.30
2012,08,06,12,13,24.30
2012,08,06,12,14,24.30
2012,08,06,12,15,24.40
2012,08,06,12,16,24.40
2012,08,06,12,17,24.40
2012,08,06,12,18,24.40
2012,08,06,12,19,24.30
2012,08,06,12,20,24.30
2012,08,06,12,21,24.20
2012,08,06,12,22,24.10
2012,08,06,12,23,24.10
2012,08,06,12,24,24.10
2012,08,06,12,25,24.00
2012,08,06,12,26,24.00
2012,08,06,12,27,24.00
2012,08,06,12,28,24.00
2012,08,06,12,29,24.00
2012,08,06,12,30,24.00
2012,08,06,12,31,24.00
2012,08,06,12,32,23.90
2012,08,06,12,33,23.90
2012,08,06,12,34,23.90
2012,08,06,12,35,23.90
2012,08,06,12,36,23.90
2012,08,06,12,37,23.90
2012,08,06,12,38,23.90
2012,08,06,12,39,23.80
2012,08,06,12,40,23.80
2012,08,06,12,41,23.70
2012,08,06,12,42,23.60
2012,08,06,12,43,23.60
2012,08,06,12,44,23.60
2012,08,06,12,45,23.60
2012,08,06,12,46,23.60
2012,08,06,12,47,23.60
2012,08,06,12,48,23.60
2012,08,06,12,49,23.60
2012,08,06,12,50,23.60
2012,08,06,12,51,23.50
2012,08,06,12,52,23.40
2012,08,06,12,53,23.40
2012,08,06,12,54,23.30
2012,08,06,12,55,23.30
2012,08,06,12,56,23.30
2012,08,06,12,57,23.20
2012,08,06,12,58,23.20
2012,08,06,12,59,23.20
2012,08,06,13,00,23.20
2012,08,06,13,01,23.20
2012,08,06,13,02,23.30
2012,08,06,13,03,23.30
2012,08,06,13,04,23.30
2012,08,06,13,05,23.30
2012,08,06,13,06,23.20
2012,08,06,13,07,23.20
2012,08,06,13,08,23.20
2012,08,06,13,09,23.10
2012,08,06,13,10,23.10
2012,08,06,13,11,23.10
2012,08,06,13,12,23.10
2012,08,06,13,13,23.10
2012,08,06,13,14,23.10
2012,08,06,13,15,23.00
2012,08,06,13,16,23.00
2012,08,06,13,17,23.00
2012,08,06,13,18,22.90
2012,08,06,13,19,22.90
2012,08,06,13,20,22.90
2012,08,06,13,21,22.90
2012,08,06,13,22,22.80
2012,08,06,13,23,22.80
2012,08,06,13,24,22.80
2012,08,06,13,25,22.80
2012,08,06,13,26,22.70
2012,08,06,13,27,22.70
2012,08,06,13,28,22.60
2012,08,06,13,29,22.60
2012,08,06,13,30,22.60
2012,08,06,13,31,22.60
2012,08,06,13,32,22.60
2012,08,06,13,33,22.50
2012,08,06,13,34,22.50
2012,08,06,13,35,22.50
2012,08,06,13,36,22.50
2012,08,06,13,37,22.40
2012,08,06,13,38,22.40
2012,08,06,13,39,22.40
2012,08,06,13,40,22.40
2012,08,06,13,41,22.30
2012,08,06,13,42,22.30
2012,08,06,13,43,22.30
2012,08,06,13,44,22.30
2012,08,06,13,45,22.30
2012,08,06,13,46,22.30
2012,08,06,13,47,22.40
2012,08,06,13,48,22.40
2012,08,06,13,49,22.40
2012,08,06,13,50,22.40
2012,08,06,13,51,22.50
2012,08,06,13,52,22.50
2012,08,06,13,53,22.60
2012,08,06,13,54,22.60
2012,08,06,13,55,22.60
2012,08,06,13,56,22.60
2012,08,06,13,57,22.60
2012,08,06,13,58,22.60
2012,08,06,13,59,22.60
2012,08,06,14,00,22.50
2012,08,06,14,01,22.50
2012,08,06,14,02,22.40
2012,08,06,14,03,22.40
2012,08,06,14,04,22.30
2012,08,06,14,05,22.30
2012,08,06,14,06,22.30
2012,08,06,14,07,22.30
2012,08,06,14,08,22.20
2012,08,06,14,09,22.20
2012,08,06,14,10,22.20
2012,08,06,14,11,22.20
2012,08,06,14,12,22.20
2012,08,06,14,13,22.20
2012,08,06,14,14,22.30
2012,08,06,14,15,22.30
2012,08,06,14,16,22.30
2012,08,06,14,17,22.30
2012,08,06,14,18,22.30
2012,08,06,14,19,22.30
2012,08,06,14,20,22.40
2012,08,06,14,21,22.40
2012,08,06,14,22,22.40
2012,08,06,14,23,22.50
2012,08,06,14,24,22.50
2012,08,06,14,25,22.60
2012,08,06,14,26,22.60
2012,08,06,14,27,22.70
2012,08,06,14,28,22.70
2012,08,06,14,29,22.70
2012,08,06,14,30,22.70
2012,08,06,14,31,22.70
2012,08,06,14,32,22.70
2012,08,06,14,33,22.70
2012,08,06,14,34,22.60
2012,08,06,14,35,22.60
2012,08,06,14,36,22.70
2012,08,06,14,37,22.70
2012,08,06,14,38,22.70
2012,08,06,14,39,22.70
2012,08,06,14,40,22.80
2012,08,06,14,41,22.80
2012,08,06,14,42,22.80
2012,08,06,14,43,22.80
2012,08,06,14,44,22.80
2012,08,06,14,45,22.80
2012,08,06,14,46,22.70
2012,08,06,14,47,22.70
2012,08,06,14,48,22.70
2012,08,06,14,49,22.70
2012,08,06,14,50,22.60
2012,08,06,14,51,22.60
2012,08,06,14,52,22.60
2012,08,06,14,53,22.60
2012,08,06,14,54,22.50
2012,08,06,14,55,22.50
2012,08,06,14,56,22.50
2012,08,06,14,57,22.50
2012,08,06,14,58,22.50
2012,08,06,14,59,22.50
2012,08,06,15,00,22.50
2012,08,06,15,01,22.50
2012,08,06,15,02,22.50
2012,08,06,15,03,22.50
2012,08,06,15,04,22.50
2012,08,06,15,05,22.50
2012,08,06,15,06,22.50
2012,08,06,15,07,22.50
2012,08,06,15,08,22.50
2012,08,06,15,09,22.40
2012,08,06,15,10,22.40
2012,08,06,15,11,22.40
2012,08,06,15,12,22.40
2012,08,06,15,13,22.40
2012,08,06,15,14,22.40
2012,08,06,15,15,22.40
2012,08,06,15,16,22.40
2012,08,06,15,17,22.40
2012,08,06,15,18,22.40
2012,08,06,15,19,22.40
2012,08,06,15,20,22.40
2012,08,06,15,21,22.40
2012,08,06,15,22,22.40
2012,08,06,15,23,22.40
2012,08,06,15,24,22.50
2012,08,06,15,25,22.50
2012,08,06,15,26,22.60
2012,08,06,15,27,22.60
2012,08,06,15,28,22.60
2012,08,06,15,29,22.60
2012,08,06,15,30,22.60
2012,08,06,15,31,22.60
2012,08,06,15,32,22.50
2012,08,06,15,33,22.40
2012,08,06,15,34,22.40
2012,08,06,15,35,22.30
2012,08,06,15,36,22.20
2012,08,06,15,37,22.20
2012,08,06,15,38,22.20
2012,08,06,15,39,22.20
2012,08,06,15,40,22.20
2012,08,06,15,41,22.10
2012,08,06,15,42,22.10
2012,08,06,15,43,22.10
2012,08,06,15,44,22.10
2012,08,06,15,45,22.10
2012,08,06,15,46,22.00
2012,08,06,15,47,22.00
2012,08,06,15,48,21.90
2012,08,06,15,49,21.90
2012,08,06,15,50,21.90
2012,08,06,15,51,21.80
2012,08,06,15,52,21.80
2012,08,06,15,53,21.70
2012,08,06,15,54,21.70
2012,08,06,15,55,21.70
2012,08,06,15,56,21.60
2012,08,06,15,57,21.60
2012,08,06,15,58,21.60
2012,08,06,15,59,21.60
2012,08,06,16,00,21.50
2012,08,06,16,01,21.40
2012,08,06,16,02,21.40
2012,08,06,16,03,21.40
2012,08,06,16,04,21.40
2012,08,06,16,05,21.40
2012,08,06,16,06,21.30
2012,08,06,16,07,21.30
2012,08,06,16,08,21.30
2012,08,06,16,09,21.30
2012,08,06,16,10,21.30
2012,08,06,16,11,21.30
2012,08,06,16,12,21.30
2012,08,06,16,13,21.20
2012,08,06,16,14,21.20
2012,08,06,16,15,21.20
2012,08,06,16,16,21.20
2012,08,06,16,17,21.10
2012,08,06,16,18,21.10
2012,08,06,16,19,21.10
2012,08,06,16,20,21.10
2012,08,06,16,21,21.10
2012,08,06,16,22,21.10
2012,08,06,16,23,21.20
2012,08,06,16,24,21.20
2012,08,06,16,25,21.20
2012,08,06,16,26,21.20
2012,08,06,16,27,21.20
2012,08,06,16,28,21.30
2012,08,06,16,29,21.30
2012,08,06,16,30,21.30
2012,08,06,16,31,21.30
2012,08,06,16,32,21.30
2012,08,06,16,33,21.30
2012,08,06,16,34,21.40
2012,08,06,16,35,21.40
2012,08,06,16,36,21.40
2012,08,06,16,37,21.40
2012,08,06,16,38,21.40
2012,08,06,16,39,21.40
2012,08,06,16,40,21.40
2012,08,06,16,41,21.40
2012,08,06,16,42,21.40
2012,08,06,16,43,21.40
2012,08,06,16,44,21.40
2012,08,06,16,45,21.40
2012,08,06,16,46,21.50
2012,08,06,16,47,21.50
2012,08,06,16,48,21.50
2012,08,06,16,49,21.50
2012,08,06,16,50,21.40
2012,08,06,16,51,21.40
2012,08,06,16,52,21.30
2012,08,06,16,53,21.30
2012,08,06,16,54,21.30
2012,08,06,16,55,21.20
2012,08,06,16,56,21.20
2012,08,06,16,57,21.20
2012,08,06,16,58,21.20
2012,08,06,16,59,21.20
2012,08,06,17,00,21.20
2012,08,06,17,01,21.20
2012,08,06,17,02,21.20
2012,08,06,17,03,21.20
2012,08,06,17,04,21.20
2012,08,06,17,05,21.20
2012,08,06,17,06,21.20
2012,08,06,17,07,21.20
2012,08,06,17,08,21.30
2012,08,06,17,09,21.30
2012,08,06,17,10,21.30
2012,08,06,17,11,21.30
2012,08,06,17,12,21.40
2012,08,06,17,13,21.40
2012,08,06,17,14,21.40
2012,08,06,17,15,21.40
2012,08,06,17,16,21.40
2012,08,06,17,17,21.40
2012,08,06,17,18,21.30
2012,08,06,17,19,21.30
2012,08,06,17,20,21.30
2012,08,06,17,21,21.30
2012,08,06,17,22,21.30